Simultaneous Nadir Overpasses (SNOs) Predictions

Prediction of SNOs between GOES-15 and METOP-A Satellite Orbit:

Table of predicted SNOs for the next 14.0 days since TLE Epoch: 4/17/2021
Index Date Time (GOES-15) GOES-15 Lat,Lon METOP-A Lat,Lon Distance(km) Time Diff (sec)
1 04/18/2021 04:57:32 -0.10,-127.87 -0.73,-130.62 312.92 80
2 04/19/2021 04:34:12 -0.10,-127.84 0.41,-125.65 250.36 80
3 04/20/2021 16:53:02 0.10,-127.88 0.64,-130.24 269.01 80
4 04/21/2021 16:35:03 0.10,-127.85 -0.49,-125.27 294.24 80
5 04/23/2021 04:54:02 -0.09,-127.69 -0.57,-129.89 250.78 80
6 04/24/2021 04:30:42 -0.10,-127.65 0.50,-124.91 312.06 80
7 04/25/2021 16:49:33 0.09,-127.68 0.49,-129.51 208.18 80
8 04/26/2021 16:31:33 0.10,-127.64 -0.59,-124.53 354.54 80
9 04/28/2021 04:50:32 -0.09,-127.48 -0.47,-129.16 191.27 80
10 04/29/2021 04:27:11 -0.09,-127.43 0.60,-124.17 370.66 80
11 04/30/2021 16:46:03 0.08,-127.45 0.38,-128.78 151.36 80
